www.pogodaiklimat.ru

Погода и климат >> Архив погоды >> Россия >> Калмыкия >> Яшкуль


АРХИВ ПОГОДЫ в Яшкуле

Время (UTC), дата Ветер
(напр.,м/с)
 
Видим.   Явления Облачность Т
(С)
Тd
(С)
f
(%)
Тe
(С)
Тes
(С)
Комфортность P
(гПа)
Po
(гПа)
Тmin
(С)
Tmax
(С)
R
(мм)
R24
(мм)
S
(см)
09 19.06 Ю 3 20 км 10/0
[Ac As]
+27.7 +8.5 30 +28 +32 жарко 1010.0 1010.8
12 19.06 З 1 20 км 10/6 600 м
[Cb cap Ac As]
+27.1 +6.6 27 +26 +28 жарко 1009.1 1009.9
15 19.06 С 4 20 км 9/3 600 м
[Cu med, cong Ac trans]
+27.0 +7.2 28 +27 +27 жарко 1008.6 1009.4 +28.3
18 19.06 ЮЗ 2 20 км 8/0
[Ac trans]
+22.7 +9.0 42 +24 +24 комфорт 1009.4 1010.2
21 19.06 СЗ 2 20 км ясно +18.1 +10.6 62 +19 +19 прохладно 1008.8 1009.6
00 20.06 З 2 20 км 6/0
[Ac trans]
+16.4 +12.2 76 +17 +17 по сезону 1008.6 1009.4
03 20.06 З 1 20 км 9/0
[Ac trans Ci fib]
+18.2 +11.2 64 +20 +21 прохладно 1008.1 1008.9 +16.1
06 20.06 Ю 1 20 км 8/0
[Ac trans Ci fib]
+26.0 +10.1 37 +27 +35 жарко 1007.5 1008.3
09 20.06 Ю 2 20 км 8/4 600 м
[Cu med, cong Ac trans Ci fib]
+28.4 +7.6 27 +28 +35 жарко 1006.6 1007.4
12 20.06 Ю 4 20 км 9/5 600 м
[Cb cap Ac trans]
+28.7 +7.3 26 +28 +30 жарко 1006.1 1006.9
15 20.06 Ю 4
{14}
20 км 10/5 600 м
[Cb cap Ac As]
+19.0 +15.7 81 +20 +20 очень
холодно
1007.2 1008.0 +29.7
18 20.06 ЮЗ 3 20 км 10/0
[Ac As]
+19.7 +15.1 75 +22 +22 комфорт 1007.7 1008.5
21 20.06 З 3 20 км 10/0
[Ac As]
+19.1 +14.3 74 +21 +21 комфорт 1007.8 1008.6
00 21.06 З 2 20 км 10/0
[Ac As]
+18.8 +12.7 68 +20 +20 тепло 1007.6 1008.4
03 21.06 З 4 20 км 10/5 600 м
[Cb cap Ac As]
+20.3 +10.9 55 +22 +22 комфорт 1007.1 1008.0 +18.4
06 21.06 З 3 20 км 10/4 600 м
[Cb cap Ac As]
+24.0 +12.4 48 +26 +28 жарко 1006.8 1007.6
09 21.06 ЮЗ 5 20 км 8/5 600 м
[Cb cap Ac trans Ci fib]
+29.7 +9.4 28 +29 +33 жарко 1006.2 1007.0
12 21.06 ЮЗ 5-10
{11}
20 км 8/5 600 м
[Cb cap Ac trans Ci fib]
+30.7 +8.0 24 +30 +32 жарко 1005.3 1006.1
15 21.06 З 4
{10}
20 км 8/4 1000 м
[Cu hum Ac trans Ci fib]
+27.6 +10.0 33 +28 +28 жарко 1005.6 1006.4 +30.9
18 21.06 З 3
{13}
20 км {ливн. осадки} 8/0
[Ac trans]
+24.0 +11.2 45 +25 +25 комфорт 1006.7 1007.5
21 21.06 ЮЗ 2 20 км {ливн. осадки} ясно +20.4 +13.4 64 +23 +23 комфорт 1006.7 1007.5
00 22.06 ЮЗ 2 20 км ясно +19.3 +13.3 68 +21 +21 комфорт 1006.1 1007.0
03 22.06 ЮЗ 3 20 км ясно +21.3 +14.8 66 +24 +26 комфорт 1006.1 1006.9 +18.6 0.3
06 22.06 З 5 20 км ясно +27.1 +14.4 46 +30 +36 душно 1006.3 1007.1
09 22.06 ЮЗ 4
{10}
20 км 8/0
[Ac trans Ci sp]
+29.8 +13.1 36 +31 +39 жарко 1005.9 1006.7
12 22.06 ЮЗ 6
{13}
20 км гроза без осадков 9/9 600 м
[Cb calv]
+25.4 +14.8 52 +28 +29 жарко 1005.4 1006.2
15 22.06 СВ 2
{19}
20 км слабый ливневой дождь, в посл. час гроза 10/6 600 м
[Cb cap Ac As]
+19.4 +17.2 87 +22 +22 комфорт 1007.8 1008.6 +31.6 15
18 22.06 ЮЗ 3 20 км {гроза} 10/8 600 м
[Cb cap Ac As]
+19.8 +17.2 85 +23 +23 комфорт 1009.0 1009.8
21 22.06 З 4 20 км {гроза} ясно +18.7 +10.4 58 +19 +19 прохладно 1010.2 1011.0
00 23.06 З 3 20 км 6/0
[Ac trans]
+15.6 +9.8 68 +15 +15 прохладно 1011.3 1012.2
03 23.06 З 2 20 км ясно +16.3 +10.1 67 +16 +18 холодно 1012.6 1013.4 +13.4 5
06 23.06 З 1 20 км ясно +24.6 +5.9 30 +24 +39 комфорт 1013.6 1014.4
09 23.06 З 3 20 км 6/5 1000 м
[Cu hum Ci fib]
+27.4 +4.9 24 +26 +34 жарко 1013.5 1014.3
12 23.06 СЗ 2 20 км 6/6 1000 м
[Cu hum Ac trans]
+28.9 +4.1 21 +27 +32 жарко 1011.8 1012.6
15 23.06 З 2 20 км 4/3 1000 м
[Cu hum Ac trans Ci fib]
+28.4 +3.8 21 +27 +28 жарко 1011.3 1012.1 +29.1
18 23.06 З 1 20 км ясно +22.6 +9.9 44 +24 +24 комфорт 1012.1 1012.9
21 23.06 ЮЗ 2 20 км ясно +19.7 +10.5 55 +22 +22 комфорт 1011.6 1012.5
00 24.06 ЮЗ 2 20 км ясно +18.0 +11.3 65 +19 +19 по сезону 1011.0 1011.8
03 24.06 ЮЗ 3 20 км ясно +18.9 +13.5 71 +20 +22 прохладно 1010.9 1011.8 +16.9
06 24.06 ЮЗ 4 20 км 5/0
[Ac trans Ci fib]
+25.3 +13.5 48 +27 +34 жарко 1009.8 1010.6
09 24.06 ЮЗ 7-10
{10}
20 км 8/5 600 м
[Cb cap Ac trans]
+28.6 +10.1 32 +29 +31 жарко 1008.1 1008.9
12 24.06 ЮЗ 4
{13}
20 км 10/6 600 м
[Cb cap Ac As]
+25.9 +11.4 40 +27 +28 жарко 1007.2 1008.0
15 24.06 ЮЗ 8-13
{13}
20 км 8/4 600 м
[Cb cap Ac trans]
+28.1 +13.0 39 +30 +30 жарко 1006.3 1007.1 +28.9
18 24.06 СЗ 3
{13}
20 км 8/5 600 м
[Cb cap Ac trans]
+22.2 +16.1 68 +26 +26 душно 1008.5 1009.3
21 24.06 З 2 20 км 10/0
[Ac As]
+20.3 +16.3 78 +24 +24 комфорт 1009.0 1009.8
00 25.06 СЗ 2 20 км 10/0
[Ac As]
+19.3 +16.8 85 +22 +22 комфорт 1009.3 1010.1
03 25.06 СВ 3 20 км 10/6 600 м
[Cb cap Ac As]
+16.8 +15.3 91 +17 +17 холодно 1010.5 1011.3 +16.8 0.3
06 25.06 С 4 20 км {ливн. осадки} 10/8 600 м
[Cb cap Ac As]
+16.2 +14.5 90 +15 +16 очень
холодно
1012.1 1012.9 +16.2
09 25.06 СВ 4 20 км {ливн. осадки} 10/8 600 м
[Cb cap Ac As]
+17.0 +13.5 80 +17 +17 очень
холодно
1013.6 1014.4
12 25.06 С 3 20 км {ливн. осадки} 3/0
[Ac trans]
+21.7 +10.2 48 +23 +32 комфорт 1013.9 1014.7
15 25.06 СЗ 1 20 км {ливн. осадки} ясно +23.2 +7.4 36 +24 +26 комфорт 1014.8 1015.6 +23.3 2
18 25.06 ЮЗ 2 20 км ясно +19.7 +11.2 58 +22 +22 комфорт 1016.4 1017.2
21 25.06 ЮЗ 3 20 км ясно +17.2 +9.8 62 +17 +17 холодно 1017.4 1018.3
00 26.06 ЮЗ 2 20 км 3/0
[Ac trans]
+15.3 +9.4 68 +15 +15 прохладно 1017.5 1018.4
03 26.06 Ю 2 20 км ясно +18.3 +9.2 55 +19 +21 прохладно 1017.8 1018.7 +14.3
06 26.06 Ю 4 20 км ясно +25.0 +5.5 29 +25 +33 комфорт 1018.0 1018.8

 

Местоположение метеостанции Яшкуль (Калмыкия, Россия): широта 46.18 долгота 45.35 высота над уровнем моря -7 м.

В архиве по умолчанию представлена погода в Яшкуле за последнюю неделю. Архивные данные за месяц целиком и за предыдущие месяцы, начиная с января 2011 года, Вы можете получить, выбрав интересующий диапазон дат из раскрывающегося списка и нажав кнопку "Ввод!".

Внимание! Время в таблицах - всемирное. Для получения местного времени необходимо прибавить поправку, которая в Яшкуле равна 3 ч.

Смотрите также архив погоды в соседних городах и на ближайших метеорологических станциях:

Погода в Утте (Калмыкия, Россия) (56 км)
Погода в Ики-Буруле (Калмыкия, Россия) (70 км)
Погода в Элисте (Калмыкия, Россия) (81 км)
Погода в Комсомольском (Калмыкия, Россия) (106 км)
Погода в Арзгире (Ставропольский край, Россия) (124 км)
Погода в Юсте (Калмыкия, Россия) (129 км)
Погода в Ремонтном (Ростовская область, Россия) (136 км)
Погода в Кетченерах (Калмыкия, Россия) (140 км)
Погода в Лимане (Астраханская область, Россия) (151 км)
Погода в Дивном (Ставропольский край, Россия) (157 км)

Пояснения к столбцам:

Ветер - указаны скорость ветра в м/с - средняя за 10 мин, порывы в срок и между сроками (в фигурных скобках) и направление, откуда дует ветер: С - северный, СВ - северо-восточный, В - восточный, ЮВ - юго-восточный, Ю - южный, ЮЗ - юго-западный, З - западный, СЗ - северо-западный.
Видимость - горизонтальная дальность видимости в метрах или километрах. При видимости от 1 до 10 км при отсутствии осадков обычно наблюдается дымка, при ухудшении видимости до 1 км и менее - туман. В сухую погоду видимость может ухудшаться дымом, пылью или мглою.
Явления - указаны атмосферные явления, наблюдавшиеся в срок или в последний час перед сроком; фигурными скобками обозначены явления, наблюдавшиеся между сроками (за 1-3 часа до срока); квадратными скобками обозначены град или гололедные отложения с указанием их диаметра в мм.
Облачность - указаны через наклонную черту общая и нижняя облачность в баллах и высота нижней границы облаков в метрах; квадратными скобками обозначены формы облаков: Ci - перистые, Cs - перисто-слоистые, Cc - перисто-кучевые, Ac - высококучевые, As - высокослоистые, Sc - слоисто-кучевые, Ns - слоисто-дождевые, Cu - кучевые, Cb - кучево-дождевые. Подробнее классификацию облаков см. в Атласе облаков (PDF).
T - Температура воздуха - температура, измеренная на высоте 2 м над землей.
Td - Температура точки росы - температура, при понижении до которой содержащийся в воздухе водяной пар достигнет насыщения.
f - Относительная влажность воздуха - влажноcть воздуха, измеренная на высоте 2 м над землей.
Te - Эффективная температура - температура, которую ощущает одетый по сезону человек в тени. Характеристика душности погоды. При расчете учитывается влияние влажности воздуха и скорости ветра на теплоощущения человека.
Tes - Эффективная температура на солнце - температура, которую ощущает человек, с поправкой на солнечный нагрев. Характеристика знойности погоды. Зависит от высоты солнца над горизонтом, облачности и скорости ветра. Ночью, в пасмурную погоду, а также при ветре 12 м/с и более поправка равна нулю.
P - Атмосферное давление - приведенное к уровню моря атмосферное давление.
Po - Атмосферное давление - измеренное на уровне метеостанции атмосферное давление.
Tmin - Минимальная температура - минимум температуры воздуха на высоте 2 м над землей.
Tmax - Максимальная температура - максимум температуры воздуха на высоте 2 м над землей.
R - Количество осадков - Количество выпавших осадков за период времени, мм. При наведении курсора мыши на число - период времени, за который выпало указанное количество осадков.
R24 - Количество осадков - Количество выпавших осадков за 24 часа, мм.
S - Снежный покров - Высота снежного покрова, см. При наведении курсора мыши на число - состояние снежного покрова и степень покрытия местности в баллах.